Satellite: AO-27
Catalog number: 22825
Epoch time:      06144.57336695
Element set:     407
Inclination:      098.2811 deg
RA of node:       127.5635 deg
Eccentricity:    0.0008355
Arg of perigee:   338.9860 deg
Mean anomaly:     021.1002 deg
Mean motion:   14.29173128 rev/day
Decay rate:        1.0e-07 rev/day^2
Epoch rev:           65998
Checksum:              307

Satellite: IO-26
Catalog number: 22826
Epoch time:      06144.54719156
Element set:    0098
Inclination:      098.2760 deg
RA of node:       128.7515 deg
Eccentricity:    0.0009045
Arg of perigee:   336.5331 deg
Mean anomaly:     023.5435 deg
Mean motion:   14.29416925 rev/day
Decay rate:        2.8e-07 rev/day^2
Epoch rev:           66005
Checksum:              304

Satellite: PO-28
Catalog number: 22829
Epoch time:      06144.55246779
Element set:    0381
Inclination:      098.2659 deg
RA of node:       129.9597 deg
Eccentricity:    0.0009185
Arg of perigee:   310.4005 deg
Mean anomaly:     049.6371 deg
Mean motion:   14.30109987 rev/day
Decay rate:       1.14e-06 rev/day^2
Epoch rev:           66026
Checksum:              330

Satellite: TO-31
Catalog number: 25396
Epoch time:      06144.76003459
Element set:    0536
Inclination:      098.4796 deg
RA of node:       205.9101 deg
Eccentricity:    0.0001681
Arg of perigee:   269.6869 deg
Mean anomaly:     090.4136 deg
Mean motion:   14.23705512 rev/day
Decay rate:       1.34e-06 rev/day^2
Epoch rev:           40901
Checksum:              300

Satellite: GO-32
Catalog number: 25397
Epoch time:      06144.70630766
Element set:    0022
Inclination:      098.4675 deg
RA of node:       202.6594 deg
Eccentricity:    0.0000492
Arg of perigee:   330.3157 deg
Mean anomaly:     029.7992 deg
Mean motion:   14.23104576 rev/day
Decay rate:       -3.5e-07 rev/day^2
Epoch rev:           40890
Checksum:              301

Satellite: UO-36
Catalog number: 25693
Epoch time:      06144.83840677
Element set:      48
Inclination:      064.5597 deg
RA of node:       314.4252 deg
Eccentricity:    0.0016001
Arg of perigee:   333.9284 deg
Mean anomaly:     026.0971 deg
Mean motion:   14.78597858 rev/day
Decay rate:        1.6e-07 rev/day^2
Epoch rev:           38233
Checksum:              325

Satellite: MO-46
Catalog number: 26548
Epoch time:      06144.70967303
Element set:    0502
Inclination:      064.5571 deg
RA of node:       304.3538 deg
Eccentricity:    0.0049832
Arg of perigee:   250.3262 deg
Mean anomaly:     109.2482 deg
Mean motion:   14.82970405 rev/day
Decay rate:       1.91e-06 rev/day^2
Epoch rev:           30593
Checksum:              299

Satellite: NO-44
Catalog number: 26931
Epoch time:      06144.77049672
Element set:     311
Inclination:      067.0531 deg
RA of node:       067.9943 deg
Eccentricity:    0.0007263
Arg of perigee:   259.7212 deg
Mean anomaly:     100.3063 deg
Mean motion:   14.29440408 rev/day
Decay rate:        4.9e-07 rev/day^2
Epoch rev:           24258
Checksum:              291

Satellite: SO-50
Catalog number: 27607
Epoch time:      06144.57698519
Element set:    0029
Inclination:      064.5574 deg
RA of node:       184.7542 deg
Eccentricity:    0.0045789
Arg of perigee:   155.7998 deg
Mean anomaly:     204.5268 deg
Mean motion:   14.71139387 rev/day
Decay rate:        4.7e-07 rev/day^2
Epoch rev:           18395
Checksum:              361

Satellite: CO-57
Catalog number: 27848
Epoch time:      06144.53722908
Element set:    0733
Inclination:      098.7204 deg
RA of node:       152.4838 deg
Eccentricity:    0.0010081
Arg of perigee:   129.6903 deg
Mean anomaly:     230.5168 deg
Mean motion:   14.20264355 rev/day
Decay rate:        6.0e-07 rev/day^2
Epoch rev:           15028
Checksum:              296

Satellite: AO-51
Catalog number: 28375
Epoch time:      06144.73812548
Element set:     538
Inclination:      098.1661 deg
RA of node:       197.8420 deg
Eccentricity:    0.0083572
Arg of perigee:   279.2712 deg
Mean anomaly:     079.9032 deg
Mean motion:   14.40519089 rev/day
Decay rate:        3.4e-07 rev/day^2
Epoch rev:            9978
Checksum:              339

Satellite: XO-53
Catalog number: 28894
Epoch time:      06144.72824172
Element set:    0556
Inclination:      098.1685 deg
RA of node:       043.4135 deg
Eccentricity:    0.0016601
Arg of perigee:   246.1877 deg
Mean anomaly:     113.7578 deg
Mean motion:   14.59473095 rev/day
Decay rate:       2.72e-06 rev/day^2
Epoch rev:           03055
Checksum:              322

Satellite: CO-56
Catalog number: 28941
Epoch time:      06144.79046259
Element set:    0099
Inclination:      098.1764 deg
RA of node:       161.4841 deg
Eccentricity:    0.0284936
Arg of perigee:   190.6996 deg
Mean anomaly:     168.8217 deg
Mean motion:   15.23693980 rev/day
Decay rate:     1.4534e-04 rev/day^2
Epoch rev:           01398
Checksum:              367

/EX
SB KEPS @ AMSAT  $ORB06145.W
Orbital Elements  06145.WEATHER

HR AMSAT ORBITAL ELEMENTS FOR WEATHER SATELLITES
FROM WA5QGD FORT WORTH,TX May 25, 2006
Send SUBSCRIBE KEPS/UNSUBSCRIBE KEPS to majordomo@amsat.org only
BID: ORB06145.W
TO ALL RADIO AMATEURS BT

Satellite: NOAA-10
Catalog number: 16969
Epoch time:      06144.66017872
Element set:    0219
Inclination:      098.7592 deg
RA of node:       156.2454 deg
Eccentricity:    0.0011738
Arg of perigee:   216.3041 deg
Mean anomaly:     143.7332 deg
Mean motion:   14.27294117 rev/day
Decay rate:       -9.6e-07 rev/day^2
Epoch rev:           02380
Checksum:              301

